{"data":{"norad_id":59751,"epoch":"2026-05-25T04:24:29.564064Z","epoch_age_seconds":65959,"freshness":"FRESH","line1":"1 59751U 24090X   26145.18367551  .00001193  00000+0  52859-4 0  9992","line2":"2 59751  43.0019 111.0857 0000953 263.6959  96.3784 15.27578952115135","mean_motion":15.27578952,"eccentricity":9.53e-5,"inclination_deg":43.0019,"raan_deg":111.0857,"arg_perigee_deg":263.6959,"mean_anomaly_deg":96.3784,"bstar":5.2859e-5,"rev_number":11513,"period_min":94.26681338563,"perigee_km":482.39836279645,"apogee_km":483.70610546448,"semimajor_km":6861.1892341305,"source":"CELESTRAK","updated_at":"2026-05-25T13:38:19.055103Z"}}